Flag Weather past 2 weeks in Gerolstein, Rhineland-Palatinate, Germany

Now
43 °F

Scattered clouds.


Feels Like: 43 °F
Forecast: 33 / 38 °F
Wind: 2 mph from Northeast

Location: Nuerburg-Barweiler

Current Time: Nov 24, 2014 at 3:29:19 PM

Latest Report: Nov 24, 2014 at 3:00 PM


Visibility: 25 mi

Pressure: 30.30 "Hg

Humidity: 83%

Dew point: 38 °F

Location of GerolsteinLocation

Historic Weather in Gerolstein — Graph

°F

Gerolstein temperature yesterday

Maximum temperature yesterday: 57 °F (at 2:00 PM)
Minimum temperature yesterday: 48 °F (at 12:00 AM)
Average temperature yesterday: 51 °F

Past Weeks' High & Low Weather Summary

 TemperatureHumidityPressure
High57 °F (Nov 23, 2:00 PM)100% (Nov 19, 12:00 AM)30.36 "Hg (Nov 19, 12:00 AM)
Low31 °F (Nov 20, 8:00 AM)70% (Nov 23, 2:00 PM)29.54 "Hg (Nov 16, 3:00 PM)
Average44 °F93%29.90 "Hg
* Reported Nov 9 2:00 PM — Nov 24 2:00 PM, Gerolstein, Weather by CustomWeather, © 2014

Note: Actual official high and low records may vary slightly from our data, if they occured in-between our weather recording intervals... More about our weather records

Advertising

Gerolstein weather history for previous 24 hours

 ConditionsComfort  
Time TempWeatherWind HumidityBarometerVisibility
2:00 PM
Nov 24
43 °FOvercast.3 mph87%30.29 "Hg22 mi
1:00 PM43 °FOvercast.3 mph87%30.30 "Hg22 mi
12:00 PM43 °FLow clouds.3 mph93%30.29 "Hg19 mi
11:00 AM42 °FFog.5 mph99%30.29 "Hg7 mi
9:00 AM44 °FLow clouds.6 mph98%30.24 "Hg5 mi
8:00 AM44 °FLight rain. Low clouds.6 mph96%30.22 "Hg9 mi
7:00 AM46 °FLight rain. Low clouds.5 mph96%30.19 "Hg16 mi
6:00 AM46 °FLow clouds.5 mph97%30.15 "Hg12 mi
5:00 AM50 °FLow clouds.3 mph93%30.09 "Hg5 mi
3:00 AM52 °FPassing clouds.3 mph89%30.06 "Hg11 mi
2:00 AM53 °FOvercast.3 mph87%30.05 "Hg13 mi
1:00 AM53 °FOvercast.3 mph86%30.04 "Hg14 mi
12:00 AM53 °FOvercast.2 mph85%30.03 "Hg14 mi
11:00 PM
Nov 23
53 °FOvercast.3 mph85%30.03 "Hg15 mi
9:00 PM51 °FOvercast.3 mph84%30.02 "Hg22 mi
8:00 PM51 °FOvercast.2 mph82%30.03 "Hg22 mi
7:00 PM50 °FOvercast.2 mph83%30.02 "Hg22 mi
6:00 PM50 °FPassing clouds.2 mph81%30.03 "Hg22 mi
5:00 PM52 °FPassing clouds.5 mph79%30.03 "Hg25 mi
3:00 PM57 °FOvercast.3 mph72%30.03 "Hg28 mi
Weather by CustomWeather, © 2014

See weather overviewHow to use our weather pages